Nassau, Bahamas

11:53 AM EST on January 22, 2018 (GMT -0500)
Nassau International

Weather History for MYNN - July, 2013

Change the Weather History Date:

Monday, July 22, 2013

  Actual Average Record
Temperature  
Mean Temperature 83 °F -  
Max Temperature 89 °F 89 °F 95 °F (2015)
Min Temperature 77 °F 75 °F 62 °F (2001)
Cooling Degree Days 18    
Growing Degree Days 33 (Base 50)    
Moisture  
Dew Point 75 °F    
Average Humidity 75    
Maximum Humidity 94    
Minimum Humidity 62    
Precipitation  
Precipitation 0.00 in 0.26 in - ()
Sea Level Pressure  
Sea Level Pressure 30.13 in    
Wind  
Wind Speed 4 mph ()    
Max Wind Speed 12 mph    
Max Gust Speed -    
Visibility 6.8 miles    
Events      
Averages and records for this station are not official NWS values.
T = Trace of Precipitation, MM = Missing Value Source: Averaged Metar Reports

Daily Weather History Graph

Daily Weather History Graph

Search for Another Location

Airport or City:

Trip Planner

Search our weather history database for the weather conditions in past years. The results will help you decide how hot, cold, wet, or windy it might be!

Date:

Astronomy

Jul. 22, 2013 Rise Set
Actual Time 6:32 AM EDT 7:59 PM EDT
Civil Twilight 6:07 AM EDT 8:24 PM EDT
Nautical Twilight 5:37 AM EDT 8:54 PM EDT
Astronomical Twilight 5:06 AM EDT 9:25 PM EDT
Moon 7:53 PM EDT 6:20 AM EDT
Length of Visible Light 14h 16m
Length of Day
13h 26m
Full, 100% of the Moon is Illuminated
Jul 22
Full
Jul 22
Full
Jul 29
Last Quarter
Aug 6
New
Aug 14
First Quarter

Hourly Weather History & Observations

Time (EDT) Temp. Heat Index Dew Point Humidity Pressure Visibility Wind Dir Wind Speed Gust Speed Precip Events Conditions
12:00 AM 80.6 °F 86.2 °F 75.2 °F 84% 30.16 in 6.2 mi East 3.5 mph - N/A   Mostly Cloudy
1:00 AM 80.6 °F 86.2 °F 75.2 °F 84% 30.16 in 6.2 mi ESE 3.5 mph - N/A   Scattered Clouds
2:00 AM 80.6 °F 86.2 °F 75.2 °F 84% 30.14 in 6.2 mi Variable 1.2 mph - N/A   Mostly Cloudy
5:00 AM 79 °F - 76 °F 88% 30.13 in 9 mi 2.3 mph - -   Scattered Clouds
5:00 AM 78.8 °F - 77.0 °F 94% 30.13 in 6.2 mi Variable 2.3 mph - N/A   Mostly Cloudy
6:00 AM 78.8 °F - 73.4 °F 83% 30.14 in 6.2 mi Variable 2.3 mph - N/A   Mostly Cloudy
8:00 AM 81 °F - 75 °F 78% 30.14 in 9 mi East 4.6 mph - -   Scattered Clouds
8:00 AM 80.6 °F 86.2 °F 75.2 °F 84% 30.14 in 6.2 mi ESE 4.6 mph - N/A   Partly Cloudy
9:00 AM 82.4 °F 88.2 °F 73.4 °F 74% 30.14 in 6.2 mi North - - N/A   Partly Cloudy
10:00 AM 84.2 °F 90.9 °F 73.4 °F 70% 30.15 in - North - - N/A   Scattered Clouds
11:00 AM 86.0 °F 95.1 °F 75.2 °F 70% 30.16 in 6.2 mi SE 11.5 mph - N/A   Scattered Clouds
12:00 PM 86.0 °F 93.4 °F 73.4 °F 66% 30.17 in 6.2 mi SSE 3.5 mph - N/A   Scattered Clouds
2:00 PM 86 °F - 76 °F 64% 30.16 in 9 mi SE 4.6 mph - -  
2:00 PM 86.0 °F 95.1 °F 75.2 °F 70% 30.16 in 6.2 mi SE 4.6 mph - N/A   Scattered Clouds
3:00 PM 87.8 °F 95.6 °F 73.4 °F 62% 30.13 in 6.2 mi SE 5.8 mph - N/A   Scattered Clouds
4:00 PM 87.8 °F 95.6 °F 73.4 °F 62% 30.10 in 6.2 mi SSE 5.8 mph - N/A   Scattered Clouds
5:00 PM 87.8 °F 97.6 °F 75.2 °F 66% 30.10 in 6.2 mi ESE 5.8 mph - N/A   Scattered Clouds
6:00 PM 86.0 °F 93.4 °F 73.4 °F 66% 30.10 in 6.2 mi SE 6.9 mph - N/A   Scattered Clouds
7:00 PM 84.2 °F 90.9 °F 73.4 °F 70% 30.09 in 6.2 mi SE 5.8 mph - N/A   Partly Cloudy
8:00 PM 84 °F - 75 °F 67% 30.10 in 9 mi ESE 3.5 mph - -   Scattered Clouds
8:00 PM 84.2 °F 92.3 °F 75.2 °F 74% 30.10 in 6.2 mi ESE 3.5 mph - N/A   Partly Cloudy
9:00 PM 82.4 °F 88.2 °F 73.4 °F 74% 30.10 in 6.2 mi East 4.6 mph - N/A   Partly Cloudy
10:00 PM 82.4 °F 89.5 °F 75.2 °F 79% 30.12 in 6.2 mi East 3.5 mph - N/A   Partly Cloudy
11:00 PM 82 °F - 77 °F 79% 30.15 in 9 mi ESE 4.6 mph - -   Scattered Clouds
11:00 PM 82.4 °F 90.9 °F 77.0 °F 84% 30.14 in 6.2 mi ESE 4.6 mph - N/A   Partly Cloudy